| time (UTC) | temp F | wind direction | speed knots | gust knots | rain 1hr in | rain 24hr in | rain mn in | humidity % | barometer mb |
| 20260509041009 | 35 | 61 | 0.9 | 2.6 | 0.00 | 0.00 | 0.00 | 78 | 1024.0 |
| 20260509040508 | 35 | 64 | 0.0 | 0.9 | 0.00 | 0.00 | 0.00 | 78 | 1024.0 |
| 20260509040015 | 35 | 63 | 0.0 | 0.0 | 0.00 | 0.00 | 0.00 | 79 | 1024.1 |
| 20260509035504 | 34 | 63 | 0.0 | 0.0 | 0.00 | 0.00 | 0.00 | 80 | 1024.1 |
| 20260509035006 | 34 | 63 | 0.0 | 0.0 | 0.00 | 0.00 | 0.00 | 79 | 1024.1 |
| 20260509034513 | 34 | 63 | 0.0 | 0.0 | 0.00 | 0.00 | 0.00 | 78 | 1024.1 |
| 20260509034008 | 34 | 63 | 0.0 | 0.0 | 0.00 | 0.00 | 0.00 | 79 | 1024.2 |
| 20260509033502 | 34 | 63 | 0.0 | 1.7 | 0.00 | 0.00 | 0.00 | 79 | 1024.2 |
| 20260509033011 | 34 | 63 | 0.0 | 1.7 | 0.00 | 0.00 | 0.00 | 78 | 1024.2 |
| 20260509032511 | 34 | 63 | 0.0 | 1.7 | 0.00 | 0.00 | 0.00 | 78 | 1024.2 |
| 20260509032003 | 34 | 67 | 0.0 | 1.7 | 0.00 | 0.00 | 0.00 | 79 | 1024.2 |
| 20260509031515 | 34 | 67 | 0.0 | 1.7 | 0.00 | 0.00 | 0.00 | 78 | 1024.2 |
| 20260509031009 | 34 | 67 | 0.0 | 0.9 | 0.00 | 0.00 | 0.00 | 77 | 1024.2 |
| 20260509030506 | 35 | 67 | 0.0 | 1.7 | 0.00 | 0.00 | 0.00 | 76 | 1024.3 |
| 20260509030006 | 35 | 67 | 0.0 | 1.7 | 0.00 | 0.00 | 0.00 | 76 | 1024.2 |
| 20260509025505 | 34 | 67 | 0.0 | 1.7 | 0.00 | 0.00 | 0.00 | 77 | 1024.3 |
| 20260509025009 | 35 | 72 | 0.0 | 1.7 | 0.00 | 0.00 | 0.00 | 76 | 1024.3 |
| 20260509024504 | 35 | 73 | 0.0 | 1.7 | 0.00 | 0.00 | 0.00 | 76 | 1024.2 |
| 20260509024007 | 35 | 73 | 0.0 | 1.7 | 0.00 | 0.00 | 0.00 | 76 | 1024.2 |
| 20260509023507 | 35 | 73 | 0.0 | 0.9 | 0.00 | 0.00 | 0.00 | 76 | 1024.3 |
| 20260509023019 | 35 | 73 | 0.0 | 0.9 | 0.00 | 0.00 | 0.00 | 76 | 1024.4 |
| 20260509022503 | 35 | 73 | 0.0 | 0.9 | 0.00 | 0.00 | 0.00 | 76 | 1024.4 |
| 20260509022007 | 35 | 75 | 0.0 | 0.9 | 0.00 | 0.00 | 0.00 | 76 | 1024.4 |
| 20260509021518 | 35 | 75 | 0.0 | 1.7 | 0.00 | 0.00 | 0.00 | 74 | 1024.4 |
| 20260509021003 | 35 | 75 | 0.0 | 1.7 | 0.00 | 0.00 | 0.00 | 75 | 1024.6 |
| 20260509020503 | 35 | 75 | 0.9 | 0.9 | 0.00 | 0.00 | 0.00 | 75 | 1024.7 |
| 20260509020016 | 35 | 76 | 0.0 | 1.7 | 0.00 | 0.00 | 0.00 | 75 | 1024.7 |
| 20260509015508 | 35 | 76 | 0.0 | 1.7 | 0.00 | 0.00 | 0.00 | 74 | 1024.7 |
| 20260509015003 | 36 | 76 | 0.0 | 1.7 | 0.00 | 0.00 | 0.00 | 74 | 1024.7 |
| 20260509014510 | 35 | 76 | 0.0 | 1.7 | 0.00 | 0.00 | 0.00 | 74 | 1024.8 |
| 20260509014009 | 36 | 76 | 0.0 | 0.9 | 0.00 | 0.00 | 0.00 | 73 | 1024.8 |
| 20260509013507 | 36 | 76 | 0.0 | 1.7 | 0.00 | 0.00 | 0.00 | 72 | 1024.7 |
| 20260509013010 | 36 | 76 | 0.0 | 1.7 | 0.00 | 0.00 | 0.00 | 72 | 1024.7 |
| 20260509012512 | 36 | 76 | 0.0 | 1.7 | 0.00 | 0.00 | 0.00 | 73 | 1024.8 |
| 20260509012010 | 35 | 86 | 0.0 | 1.7 | 0.00 | 0.00 | 0.00 | 74 | 1024.7 |
| 20260509011507 | 35 | 86 | 0.9 | 1.7 | 0.00 | 0.00 | 0.00 | 74 | 1024.8 |
| 20260509011006 | 36 | 86 | 0.0 | 1.7 | 0.00 | 0.00 | 0.00 | 73 | 1024.8 |
| 20260509010506 | 35 | 86 | 0.9 | 1.7 | 0.00 | 0.00 | 0.00 | 73 | 1024.8 |
| 20260509010032 | 35 | 98 | 0.9 | 1.7 | 0.00 | 0.00 | 0.00 | 74 | 1024.9 |
| 20260509005506 | 35 | 98 | 0.0 | 1.7 | 0.00 | 0.00 | 0.00 | 75 | 1025.0 |
| 20260509005006 | 36 | 99 | 0.0 | 1.7 | 0.00 | 0.00 | 0.00 | 73 | 1024.9 |
| 20260509004519 | 35 | 98 | 0.0 | 1.7 | 0.00 | 0.00 | 0.00 | 74 | 1024.8 |
| 20260509004003 | 35 | 98 | 0.0 | 1.7 | 0.00 | 0.00 | 0.00 | 74 | 1024.9 |
| 20260509003506 | 36 | 98 | 0.0 | 1.7 | 0.00 | 0.00 | 0.00 | 73 | 1024.9 |
| 20260509003024 | 36 | 105 | 0.0 | 0.9 | 0.00 | 0.00 | 0.00 | 73 | 1024.9 |
| 20260509002507 | 36 | 105 | 0.0 | 0.0 | 0.00 | 0.00 | 0.00 | 72 | 1025.0 |
| 20260509002009 | 36 | 105 | 0.0 | 0.0 | 0.00 | 0.00 | 0.00 | 73 | 1025.1 |
| 20260509001521 | 36 | 105 | 0.0 | 0.0 | 0.00 | 0.00 | 0.00 | 72 | 1025.2 |
| 20260509001010 | 36 | 105 | 0.0 | 0.0 | 0.00 | 0.00 | 0.00 | 72 | 1025.2 |
| 20260509000506 | 37 | 105 | 0.0 | 0.0 | 0.00 | 0.00 | 0.00 | 71 | 1025.2 |
| 20260509000017 | 36 | 105 | 0.0 | 0.0 | 0.00 | 0.00 | 0.00 | 71 | 1025.2 |
| 20260508235513 | 36 | 105 | 0.0 | 1.7 | 0.00 | 0.00 | 0.00 | 71 | 1025.3 |
| 20260508235006 | 37 | 105 | 0.0 | 1.7 | 0.00 | 0.00 | 0.00 | 72 | 1025.2 |
| 20260508234513 | 37 | 105 | 0.0 | 6.1 | 0.00 | 0.00 | 0.00 | 70 | 1025.3 |
| 20260508234009 | 37 | 75 | 0.9 | 6.1 | 0.00 | 0.00 | 0.00 | 68 | 1025.3 |
| 20260508233512 | 37 | 98 | 0.0 | 2.6 | 0.00 | 0.00 | 0.00 | 71 | 1025.3 |
| 20260508233012 | 37 | 99 | 0.0 | 2.6 | 0.00 | 0.00 | 0.00 | 70 | 1025.5 |
| 20260508232507 | 38 | 103 | 0.0 | 0.0 | 0.00 | 0.00 | 0.00 | 69 | 1025.5 |
| 20260508232010 | 38 | 103 | 0.0 | 0.0 | 0.00 | 0.00 | 0.00 | 68 | 1025.4 |
| 20260508231525 | 38 | 103 | 0.0 | 0.0 | 0.00 | 0.00 | 0.00 | 68 | 1025.5 |
| 20260508231007 | 38 | 103 | 0.0 | 0.0 | 0.00 | 0.00 | 0.00 | 67 | 1025.5 |
| 20260508230510 | 38 | 103 | 0.0 | 0.0 | 0.00 | 0.00 | 0.00 | 67 | 1025.5 |
| 20260508230026 | 38 | 103 | 0.0 | 0.0 | 0.00 | 0.00 | 0.00 | 67 | 1025.5 |
| 20260508225513 | 38 | 103 | 0.0 | 0.0 | 0.00 | 0.00 | 0.00 | 67 | 1025.5 |
| 20260508225014 | 38 | 103 | 0.0 | 1.7 | 0.00 | 0.00 | 0.00 | 67 | 1025.5 |
| 20260508224522 | 39 | 103 | 0.0 | 1.7 | 0.00 | 0.00 | 0.00 | 65 | 1025.5 |
| 20260508224009 | 39 | 103 | 0.0 | 1.7 | 0.00 | 0.00 | 0.00 | 64 | 1025.5 |
| 20260508223507 | 39 | 103 | 0.0 | 1.7 | 0.00 | 0.00 | 0.00 | 63 | 1025.5 |
| 20260508223035 | 40 | 105 | 0.0 | 1.7 | 0.00 | 0.00 | 0.00 | 65 | 1025.5 |
| 20260508222508 | 40 | 105 | 0.0 | 2.6 | 0.00 | 0.00 | 0.00 | 61 | 1025.6 |
| 20260508222011 | 41 | 105 | 0.0 | 2.6 | 0.00 | 0.00 | 0.00 | 61 | 1025.5 |
| 20260508221515 | 41 | 101 | 0.9 | 2.6 | 0.00 | 0.00 | 0.00 | 60 | 1025.5 |
| 20260508221013 | 41 | 116 | 0.9 | 3.5 | 0.00 | 0.00 | 0.00 | 59 | 1025.6 |
| 20260508220508 | 41 | 111 | 1.7 | 3.5 | 0.00 | 0.00 | 0.00 | 60 | 1025.6 |
| 20260508220021 | 40 | 126 | 0.0 | 1.7 | 0.00 | 0.00 | 0.00 | 66 | 1025.6 |
| 20260508215507 | 40 | 101 | 0.0 | 0.9 | 0.00 | 0.00 | 0.00 | 63 | 1025.6 |
| 20260508215012 | 40 | 101 | 0.0 | 0.0 | 0.00 | 0.00 | 0.00 | 64 | 1025.6 |
| 20260508214536 | 41 | 101 | 0.0 | 0.0 | 0.00 | 0.00 | 0.00 | 63 | 1025.5 |
| 20260508214008 | 41 | 101 | 0.0 | 0.0 | 0.00 | 0.00 | 0.00 | 60 | 1025.5 |
| 20260508213509 | 41 | 101 | 0.0 | 0.0 | 0.00 | 0.00 | 0.00 | 60 | 1025.5 |
| 20260508213032 | 42 | 101 | 0.0 | 0.0 | 0.00 | 0.00 | 0.00 | 59 | 1025.4 |
| 20260508212507 | 42 | 101 | 0.0 | 0.0 | 0.00 | 0.00 | 0.00 | 58 | 1025.3 |
| 20260508212013 | 43 | 101 | 0.0 | 0.0 | 0.00 | 0.00 | 0.00 | 56 | 1025.3 |
| 20260508211525 | 44 | 101 | 0.0 | 0.9 | 0.00 | 0.00 | 0.00 | 54 | 1025.3 |
| 20260508211011 | 44 | 101 | 0.0 | 0.9 | 0.00 | 0.00 | 0.00 | 54 | 1025.3 |
| 20260508210508 | 45 | 101 | 0.0 | 1.7 | 0.00 | 0.00 | 0.00 | 52 | 1025.3 |
| 20260508210026 | 46 | 101 | 0.0 | 1.7 | 0.00 | 0.00 | 0.00 | 49 | 1025.3 |
| 20260508205514 | 47 | 101 | 0.9 | 1.7 | 0.00 | 0.00 | 0.00 | 45 | 1025.2 |
| 20260508205007 | 48 | 113 | 0.9 | 3.5 | 0.00 | 0.00 | 0.00 | 45 | 1025.1 |
| 20260508204530 | 48 | 130 | 1.7 | 5.2 | 0.00 | 0.00 | 0.00 | 43 | 1025.1 |
| 20260508204017 | 49 | 142 | 2.6 | 7.0 | 0.00 | 0.00 | 0.00 | 42 | 1025.1 |
| 20260508203509 | 49 | 126 | 2.6 | 7.0 | 0.00 | 0.00 | 0.00 | 42 | 1025.1 |
| 20260508203017 | 49 | 133 | 1.7 | 6.1 | 0.00 | 0.00 | 0.00 | 44 | 1025.0 |
| 20260508202511 | 49 | 94 | 1.7 | 6.1 | 0.00 | 0.00 | 0.00 | 45 | 1024.9 |
| 20260508202007 | 49 | 115 | 1.7 | 5.2 | 0.00 | 0.00 | 0.00 | 45 | 1024.8 |
| 20260508201513 | 49 | 121 | 1.7 | 3.5 | 0.00 | 0.00 | 0.00 | 45 | 1024.8 |
| 20260508201008 | 49 | 92 | 2.6 | 3.5 | 0.00 | 0.00 | 0.00 | 45 | 1024.7 |
| 20260508200508 | 49 | 110 | 2.6 | 3.5 | 0.00 | 0.00 | 0.00 | 1024.7 | |
| 20260508200028 | 49 | 102 | 1.7 | 5.2 | 0.00 | 0.00 | 0.00 | 45 | 1024.7 |
| 20260508195510 | 49 | 136 | 0.9 | 5.2 | 0.00 | 0.00 | 0.00 | 45 | 1024.7 |
| 20260508195009 | 49 | 124 | 0.9 | 3.5 | 0.00 | 0.00 | 0.00 | 44 | 1024.6 |
| 20260508194526 | 50 | 122 | 2.6 | 5.2 | 0.00 | 0.00 | 0.00 | 43 | 1024.6 |
| 20260508194010 | 50 | 115 | 2.6 | 6.1 | 0.00 | 0.00 | 0.00 | 43 | 1024.4 |
| 20260508193508 | 50 | 106 | 3.5 | 6.1 | 0.00 | 0.00 | 0.00 | 42 | 1024.4 |
| 20260508193026 | 50 | 101 | 1.7 | 7.8 | 0.00 | 0.00 | 0.00 | 42 | 1024.3 |
| 20260508192511 | 50 | 134 | 4.3 | 8.7 | 0.00 | 0.00 | 0.00 | 43 | 1024.4 |
| 20260508192009 | 51 | 113 | 2.6 | 8.7 | 0.00 | 0.00 | 0.00 | 43 | 1024.4 |
| 20260508191528 | 51 | 111 | 2.6 | 6.1 | 0.00 | 0.00 | 0.00 | 44 | 1024.4 |
| 20260508191008 | 51 | 111 | 3.5 | 7.8 | 0.00 | 0.00 | 0.00 | 44 | 1024.4 |
| 20260508190508 | 51 | 116 | 1.7 | 7.8 | 0.00 | 0.00 | 0.00 | 43 | 1024.4 |
| 20260508190026 | 51 | 86 | 2.6 | 7.8 | 0.00 | 0.00 | 0.00 | 43 | 1024.4 |
| 20260508185508 | 51 | 103 | 2.6 | 7.0 | 0.00 | 0.00 | 0.00 | 42 | 1024.3 |
| 20260508185009 | 52 | 122 | 4.3 | 7.8 | 0.00 | 0.00 | 0.00 | 41 | 1024.3 |
| 20260508184518 | 52 | 146 | 4.3 | 7.8 | 0.00 | 0.00 | 0.00 | 41 | 1024.2 |
| 20260508184009 | 52 | 138 | 3.5 | 11.3 | 0.00 | 0.00 | 0.00 | 42 | 1024.1 |
| 20260508183512 | 53 | 126 | 6.1 | 11.3 | 0.00 | 0.00 | 0.00 | 41 | 1024.1 |
| 20260508183026 | 53 | 109 | 7.0 | 9.6 | 0.00 | 0.00 | 0.00 | 41 | 1024.1 |
| 20260508182509 | 53 | 122 | 3.5 | 8.7 | 0.00 | 0.00 | 0.00 | 40 | 1024.0 |
| 20260508182010 | 53 | 127 | 5.2 | 8.7 | 0.00 | 0.00 | 0.00 | 38 | 1024.1 |
| 20260508181527 | 53 | 132 | 5.2 | 12.2 | 0.00 | 0.00 | 0.00 | 38 | 1024.0 |
| 20260508181011 | 54 | 146 | 5.2 | 12.2 | 0.00 | 0.00 | 0.00 | 38 | 1024.0 |
| 20260508180512 | 54 | 144 | 6.1 | 11.3 | 0.00 | 0.00 | 0.00 | 39 | 1024.0 |
| 20260508180027 | 54 | 97 | 6.1 | 11.3 | 0.00 | 0.00 | 0.00 | 39 | 1023.9 |
| 20260508175510 | 54 | 148 | 7.0 | 11.3 | 0.00 | 0.00 | 0.00 | 39 | 1023.9 |
| 20260508175007 | 55 | 126 | 4.3 | 12.2 | 0.00 | 0.00 | 0.00 | 40 | 1023.8 |
| 20260508174524 | 55 | 138 | 3.5 | 12.2 | 0.00 | 0.00 | 0.00 | 39 | 1023.7 |
| 20260508174013 | 55 | 105 | 5.2 | 10.4 | 0.00 | 0.00 | 0.00 | 39 | 1023.7 |
| 20260508173508 | 55 | 165 | 6.1 | 10.4 | 0.00 | 0.00 | 0.00 | 38 | 1023.6 |
| 20260508173024 | 56 | 140 | 8.7 | 10.4 | 0.00 | 0.00 | 0.00 | 37 | 1023.6 |
| 20260508172508 | 56 | 102 | 7.0 | 10.4 | 0.00 | 0.00 | 0.00 | 36 | 1023.6 |
| 20260508172018 | 56 | 145 | 4.3 | 10.4 | 0.00 | 0.00 | 0.00 | 35 | 1023.6 |
| 20260508171528 | 56 | 101 | 2.6 | 10.4 | 0.00 | 0.00 | 0.00 | 38 | 1023.5 |
| 20260508171013 | 56 | 132 | 4.3 | 10.4 | 0.00 | 0.00 | 0.00 | 38 | 1023.5 |
| 20260508170511 | 56 | 139 | 6.1 | 10.4 | 0.00 | 0.00 | 0.00 | 37 | 1023.5 |
| 20260508170018 | 56 | 142 | 7.0 | 10.4 | 0.00 | 0.00 | 0.00 | 36 | 1023.4 |
| 20260508165510 | 57 | 144 | 5.2 | 10.4 | 0.00 | 0.00 | 0.00 | 36 | 1023.4 |
| 20260508165007 | 57 | 130 | 7.8 | 10.4 | 0.00 | 0.00 | 0.00 | 35 | 1023.4 |
| 20260508164528 | 57 | 111 | 7.8 | 11.3 | 0.00 | 0.00 | 0.00 | 34 | 1023.4 |
| 20260508164015 | 57 | 180 | 7.0 | 13.0 | 0.00 | 0.00 | 0.00 | 34 | 1023.3 |
| 20260508163507 | 57 | 112 | 6.1 | 13.0 | 0.00 | 0.00 | 0.00 | 33 | 1023.4 |
| 20260508163026 | 57 | 145 | 5.2 | 13.0 | 0.00 | 0.00 | 0.00 | 33 | 1023.4 |
| 20260508162512 | 57 | 147 | 5.2 | 13.0 | 0.00 | 0.00 | 0.00 | 33 | 1023.3 |
| 20260508162008 | 58 | 173 | 5.2 | 10.4 | 0.00 | 0.00 | 0.00 | 33 | 1023.3 |
| 20260508161528 | 58 | 126 | 7.0 | 12.2 | 0.00 | 0.00 | 0.00 | 33 | 1023.3 |
| 20260508161012 | 58 | 158 | 5.2 | 13.0 | 0.00 | 0.00 | 0.00 | 33 | 1023.3 |
| 20260508160507 | 58 | 151 | 7.8 | 13.0 | 0.00 | 0.00 | 0.00 | 32 | 1023.3 |
| 20260508160048 | 58 | 132 | 6.1 | 10.4 | 0.00 | 0.00 | 0.00 | 32 | 1023.4 |
| 20260508155513 | 58 | 163 | 6.1 | 10.4 | 0.00 | 0.00 | 0.00 | 31 | 1023.2 |
| 20260508155008 | 58 | 123 | 5.2 | 9.6 | 0.00 | 0.00 | 0.00 | 31 | 1023.1 |
| 20260508154526 | 59 | 160 | 2.6 | 9.6 | 0.00 | 0.00 | 0.00 | 31 | 1023.1 |
| 20260508154010 | 58 | 139 | 7.0 | 11.3 | 0.00 | 0.00 | 0.00 | 30 | 1023.1 |
| 20260508153510 | 58 | 138 | 8.7 | 13.9 | 0.00 | 0.00 | 0.00 | 29 | 1023.1 |
| 20260508153028 | 58 | 152 | 7.8 | 13.9 | 0.00 | 0.00 | 0.00 | 28 | 1023.1 |
| 20260508152512 | 59 | 202 | 7.0 | 10.4 | 0.00 | 0.00 | 0.00 | 31 | 1023.3 |
| 20260508152016 | 58 | 193 | 7.0 | 12.2 | 0.00 | 0.00 | 0.00 | 29 | 1023.4 |
| 20260508151523 | 58 | 141 | 7.8 | 12.2 | 0.00 | 0.00 | 0.00 | 30 | 1023.3 |
| 20260508151010 | 59 | 141 | 7.8 | 11.3 | 0.00 | 0.00 | 0.00 | 30 | 1023.3 |
| 20260508150509 | 58 | 130 | 7.0 | 10.4 | 0.00 | 0.00 | 0.00 | 30 | 1023.4 |
| 20260508150034 | 58 | 140 | 7.0 | 12.2 | 0.00 | 0.00 | 0.00 | 31 | 1023.4 |
| 20260508145511 | 59 | 127 | 7.8 | 12.2 | 0.00 | 0.00 | 0.00 | 30 | 1023.4 |
| 20260508145017 | 58 | 140 | 6.1 | 10.4 | 0.00 | 0.00 | 0.00 | 29 | 1023.5 |
| 20260508144527 | 59 | 157 | 5.2 | 11.3 | 0.00 | 0.00 | 0.00 | 31 | 1023.5 |
| 20260508144016 | 59 | 146 | 4.3 | 11.3 | 0.00 | 0.00 | 0.00 | 31 | 1023.5 |
| 20260508143516 | 59 | 169 | 7.0 | 12.2 | 0.00 | 0.00 | 0.00 | 30 | 1023.6 |
| 20260508143031 | 59 | 144 | 6.1 | 12.2 | 0.00 | 0.00 | 0.00 | 31 | 1023.6 |
| 20260508142512 | 59 | 114 | 5.2 | 10.4 | 0.00 | 0.00 | 0.00 | 28 | 1023.6 |
| 20260508142009 | 59 | 132 | 5.2 | 10.4 | 0.00 | 0.00 | 0.00 | 29 | 1023.6 |
| 20260508141536 | 59 | 134 | 6.1 | 11.3 | 0.00 | 0.00 | 0.00 | 29 | 1023.6 |
| 20260508141010 | 59 | 153 | 6.1 | 11.3 | 0.00 | 0.00 | 0.00 | 30 | 1023.7 |
| 20260508140510 | 59 | 161 | 6.1 | 12.2 | 0.00 | 0.00 | 0.00 | 30 | 1023.8 |
| 20260508140024 | 59 | 141 | 7.0 | 12.2 | 0.00 | 0.00 | 0.00 | 32 | 1023.9 |
| 20260508135517 | 59 | 153 | 4.3 | 10.4 | 0.00 | 0.00 | 0.00 | 32 | 1023.8 |
| 20260508135012 | 59 | 144 | 6.1 | 10.4 | 0.00 | 0.00 | 0.00 | 33 | 1023.8 |
| 20260508134531 | 59 | 178 | 6.1 | 11.3 | 0.00 | 0.00 | 0.00 | 32 | 1023.8 |
| 20260508134014 | 59 | 152 | 7.8 | 12.2 | 0.00 | 0.00 | 0.00 | 35 | 1023.9 |
| 20260508133512 | 59 | 151 | 7.8 | 12.2 | 0.00 | 0.00 | 0.00 | 33 | 1023.8 |
| 20260508133028 | 59 | 130 | 6.1 | 11.3 | 0.00 | 0.00 | 0.00 | 33 | 1023.8 |
| 20260508132512 | 60 | 149 | 4.3 | 13.0 | 0.00 | 0.00 | 0.00 | 35 | 1023.8 |
| 20260508132011 | 59 | 136 | 7.8 | 13.9 | 0.00 | 0.00 | 0.00 | 34 | 1023.8 |
| 20260508131529 | 59 | 111 | 5.2 | 13.9 | 0.00 | 0.00 | 0.00 | 35 | 1023.7 |
| 20260508131012 | 59 | 159 | 6.1 | 12.2 | 0.00 | 0.00 | 0.00 | 35 | 1023.8 |
| 20260508130511 | 59 | 144 | 7.8 | 13.9 | 0.00 | 0.00 | 0.00 | 36 | 1023.9 |
| 20260508130028 | 59 | 149 | 7.8 | 13.9 | 0.00 | 0.00 | 0.00 | 35 | 1023.9 |
| 20260508125510 | 59 | 145 | 8.7 | 13.9 | 0.00 | 0.00 | 0.00 | 35 | 1023.8 |
| 20260508125010 | 59 | 144 | 7.0 | 11.3 | 0.00 | 0.00 | 0.00 | 35 | 1023.9 |
| 20260508124527 | 59 | 148 | 6.1 | 10.4 | 0.00 | 0.00 | 0.00 | 35 | 1023.8 |
| 20260508124015 | 59 | 140 | 7.0 | 11.3 | 0.00 | 0.00 | 0.00 | 34 | 1023.8 |
| 20260508123507 | 60 | 143 | 7.0 | 11.3 | 0.00 | 0.00 | 0.00 | 35 | 1023.9 |
| 20260508123028 | 59 | 142 | 5.2 | 13.9 | 0.00 | 0.00 | 0.00 | 34 | 1023.8 |
| 20260508122514 | 59 | 166 | 6.1 | 13.9 | 0.00 | 0.00 | 0.00 | 34 | 1023.8 |
| 20260508122011 | 59 | 123 | 6.1 | 11.3 | 0.00 | 0.00 | 0.00 | 34 | 1023.8 |
| 20260508121549 | 59 | 162 | 7.0 | 11.3 | 0.00 | 0.00 | 0.00 | 34 | 1023.9 |
| 20260508121010 | 59 | 129 | 7.0 | 12.2 | 0.00 | 0.00 | 0.00 | 33 | 1023.8 |
| 20260508120514 | 59 | 146 | 7.0 | 12.2 | 0.00 | 0.00 | 0.00 | 34 | 1023.7 |
| 20260508120024 | 59 | 148 | 6.1 | 12.2 | 0.00 | 0.00 | 0.00 | 35 | 1023.8 |
| 20260508115512 | 59 | 99 | 7.0 | 12.2 | 0.00 | 0.00 | 0.00 | 33 | 1023.9 |
| 20260508115010 | 58 | 150 | 7.8 | 11.3 | 0.00 | 0.00 | 0.00 | 33 | 1023.8 |
| 20260508114528 | 59 | 141 | 5.2 | 11.3 | 0.00 | 0.00 | 0.00 | 35 | 1023.8 |
| 20260508114009 | 60 | 181 | 7.0 | 10.4 | 0.00 | 0.00 | 0.00 | 34 | 1023.9 |
| 20260508113512 | 60 | 132 | 7.0 | 10.4 | 0.00 | 0.00 | 0.00 | 33 | 1023.9 |
| 20260508113028 | 60 | 101 | 5.2 | 10.4 | 0.00 | 0.00 | 0.00 | 33 | 1023.9 |
| 20260508112509 | 59 | 94 | 4.3 | 9.6 | 0.00 | 0.00 | 0.00 | 34 | 1023.9 |
| 20260508112009 | 59 | 147 | 6.1 | 10.4 | 0.00 | 0.00 | 0.00 | 35 | 1024.0 |
| 20260508111526 | 58 | 138 | 6.1 | 10.4 | 0.00 | 0.00 | 0.00 | 35 | 1024.0 |
| 20260508111010 | 59 | 174 | 6.1 | 10.4 | 0.00 | 0.00 | 0.00 | 36 | 1024.0 |
| 20260508110511 | 58 | 134 | 6.1 | 10.4 | 0.00 | 0.00 | 0.00 | 36 | 1023.9 |
| 20260508110031 | 59 | 191 | 5.2 | 8.7 | 0.00 | 0.00 | 0.00 | 36 | 1024.0 |
| 20260508105516 | 58 | 176 | 6.1 | 10.4 | 0.00 | 0.00 | 0.00 | 37 | 1024.0 |
| 20260508105013 | 58 | 164 | 2.6 | 11.3 | 0.00 | 0.00 | 0.00 | 36 | 1024.0 |
| 20260508104527 | 57 | 173 | 6.1 | 11.3 | 0.00 | 0.00 | 0.00 | 36 | 1024.1 |
| 20260508104010 | 57 | 148 | 5.2 | 11.3 | 0.00 | 0.00 | 0.00 | 36 | 1024.1 |
| 20260508103510 | 57 | 113 | 7.0 | 10.4 | 0.00 | 0.00 | 0.00 | 35 | 1024.1 |
| 20260508103026 | 57 | 132 | 6.1 | 9.6 | 0.00 | 0.00 | 0.00 | 36 | 1024.0 |
| 20260508102512 | 57 | 140 | 6.1 | 12.2 | 0.00 | 0.00 | 0.00 | 38 | 1024.0 |
| 20260508102012 | 57 | 141 | 4.3 | 12.2 | 0.00 | 0.00 | 0.00 | 39 | 1024.0 |
| 20260508101525 | 57 | 142 | 3.5 | 13.0 | 0.00 | 0.00 | 0.00 | 37 | 1024.0 |
| 20260508101013 | 57 | 165 | 7.0 | 13.0 | 0.00 | 0.00 | 0.00 | 38 | 1024.0 |
| 20260508100508 | 56 | 155 | 7.8 | 12.2 | 0.00 | 0.00 | 0.00 | 38 | 1024.1 |
| 20260508100023 | 57 | 150 | 6.1 | 10.4 | 0.00 | 0.00 | 0.00 | 38 | 1024.0 |
| 20260508095511 | 56 | 160 | 7.0 | 12.2 | 0.00 | 0.00 | 0.00 | 38 | 1024.0 |
| 20260508095016 | 56 | 92 | 7.0 | 12.2 | 0.00 | 0.00 | 0.00 | 36 | 1024.0 |
| 20260508094522 | 56 | 119 | 6.1 | 12.2 | 0.00 | 0.00 | 0.00 | 38 | 1024.0 |
| 20260508094009 | 56 | 136 | 6.1 | 12.2 | 0.00 | 0.00 | 0.00 | 39 | 1024.0 |
| 20260508093507 | 55 | 140 | 7.8 | 11.3 | 0.00 | 0.00 | 0.00 | 39 | 1024.0 |
| 20260508093023 | 55 | 164 | 8.7 | 12.2 | 0.00 | 0.00 | 0.00 | 37 | 1024.0 |
| 20260508092509 | 55 | 171 | 7.8 | 12.2 | 0.00 | 0.00 | 0.00 | 37 | 1024.1 |
| 20260508092011 | 55 | 151 | 6.1 | 12.2 | 0.00 | 0.00 | 0.00 | 38 | 1024.0 |
| 20260508091513 | 55 | 128 | 5.2 | 12.2 | 0.00 | 0.00 | 0.00 | 47 | 1024.0 |
| 20260508091007 | 54 | 148 | 8.7 | 12.2 | 0.00 | 0.00 | 0.00 | 50 | 1024.0 |
| 20260508090511 | 54 | 146 | 7.8 | 13.0 | 0.00 | 0.00 | 0.00 | 52 | 1024.0 |
| 20260508090011 | 53 | 169 | 7.0 | 13.0 | 0.00 | 0.00 | 0.00 | 56 | 1024.0 |
| 20260508085514 | 54 | 137 | 7.8 | 12.2 | 0.00 | 0.00 | 0.00 | 57 | 1024.1 |
| 20260508085010 | 54 | 117 | 6.1 | 11.3 | 0.00 | 0.00 | 0.00 | 60 | 1024.0 |
| 20260508084528 | 53 | 120 | 7.0 | 13.0 | 0.00 | 0.00 | 0.00 | 58 | 1024.0 |
| 20260508084008 | 53 | 74 | 7.0 | 13.0 | 0.00 | 0.00 | 0.00 | 58 | 1023.9 |
| 20260508083515 | 53 | 169 | 6.1 | 10.4 | 0.00 | 0.00 | 0.00 | 57 | 1023.9 |
| 20260508083110 | 54 | 127 | 6.1 | 10.4 | 0.00 | 0.00 | 0.00 | 58 | 1023.8 |
| 20260508082507 | 53 | 138 | 7.0 | 10.4 | 0.00 | 0.00 | 0.00 | 57 | 1023.7 |
| 20260508082011 | 53 | 170 | 5.2 | 11.3 | 0.00 | 0.00 | 0.00 | 57 | 1023.7 |
| 20260508081526 | 53 | 85 | 6.1 | 11.3 | 0.00 | 0.00 | 0.00 | 61 | 1023.7 |
| 20260508081007 | 52 | 123 | 7.0 | 10.4 | 0.00 | 0.00 | 0.00 | 60 | 1023.7 |
| 20260508080506 | 52 | 144 | 7.8 | 10.4 | 0.00 | 0.00 | 0.00 | 60 | 1023.7 |
| 20260508080021 | 52 | 103 | 7.8 | 11.3 | 0.00 | 0.00 | 0.00 | 60 | 1023.8 |
| 20260508075512 | 52 | 145 | 3.5 | 14.8 | 0.00 | 0.00 | 0.00 | 60 | 1023.7 |
| 20260508075003 | 52 | 161 | 6.1 | 14.8 | 0.00 | 0.00 | 0.00 | 60 | 1023.7 |
| 20260508074519 | 52 | 137 | 6.1 | 11.3 | 0.00 | 0.00 | 0.00 | 58 | 1023.7 |
| 20260508074010 | 52 | 152 | 7.8 | 10.4 | 0.00 | 0.00 | 0.00 | 58 | 1023.6 |
| 20260508073511 | 51 | 120 | 4.3 | 13.0 | 0.00 | 0.00 | 0.00 | 61 | 1023.5 |
| 20260508073012 | 51 | 139 | 8.7 | 13.0 | 0.00 | 0.00 | 0.00 | 60 | 1023.4 |
| 20260508072511 | 51 | 112 | 7.8 | 12.2 | 0.00 | 0.00 | 0.00 | 60 | 1023.4 |
| 20260508072009 | 50 | 149 | 6.1 | 11.3 | 0.00 | 0.00 | 0.00 | 62 | 1023.4 |
| 20260508071514 | 51 | 148 | 7.8 | 12.2 | 0.00 | 0.00 | 0.00 | 61 | 1023.4 |
| 20260508071012 | 51 | 171 | 7.0 | 12.2 | 0.00 | 0.00 | 0.00 | 62 | 1023.3 |
| 20260508070508 | 51 | 136 | 7.0 | 10.4 | 0.00 | 0.00 | 0.00 | 65 | 1023.2 |
| 20260508070027 | 50 | 113 | 7.0 | 10.4 | 0.00 | 0.00 | 0.00 | 66 | 1023.1 |
| 20260508065507 | 51 | 171 | 1.7 | 7.0 | 0.00 | 0.00 | 0.00 | 69 | 1023.0 |
| 20260508065010 | 51 | 136 | 2.6 | 8.7 | 0.00 | 0.00 | 0.00 | 69 | 1023.1 |
| 20260508064542 | 51 | 124 | 4.3 | 8.7 | 0.00 | 0.00 | 0.00 | 73 | 1022.9 |
| 20260508064010 | 50 | 122 | 4.3 | 8.7 | 0.00 | 0.00 | 0.00 | 76 | 1022.9 |
| 20260508063507 | 50 | 138 | 3.5 | 8.7 | 0.00 | 0.00 | 0.00 | 79 | 1022.9 |
| 20260508063022 | 50 | 121 | 4.3 | 7.0 | 0.00 | 0.00 | 0.00 | 78 | 1022.8 |
| 20260508062510 | 51 | 119 | 4.3 | 7.0 | 0.00 | 0.00 | 0.00 | 77 | 1022.7 |
| 20260508062010 | 51 | 111 | 3.5 | 7.0 | 0.00 | 0.00 | 0.00 | 77 | 1022.6 |
| 20260508061524 | 51 | 134 | 0.9 | 6.1 | 0.00 | 0.00 | 0.00 | 78 | 1022.5 |
| 20260508061011 | 50 | 117 | 3.5 | 6.1 | 0.00 | 0.00 | 0.00 | 80 | 1022.5 |
| 20260508060513 | 50 | 72 | 2.6 | 5.2 | 0.00 | 0.00 | 0.00 | 81 | 1022.4 |
| 20260508060022 | 50 | 73 | 1.7 | 3.5 | 0.00 | 0.00 | 0.00 | 81 | 1022.3 |
| 20260508055514 | 49 | 89 | 2.6 | 3.5 | 0.00 | 0.00 | 0.00 | 82 | 1022.3 |
| 20260508055008 | 49 | 93 | 1.7 | 3.5 | 0.00 | 0.00 | 0.00 | 82 | 1022.3 |
| 20260508054517 | 48 | 65 | 0.9 | 3.5 | 0.00 | 0.00 | 0.00 | 83 | 1022.2 |
| 20260508054010 | 48 | 59 | 1.7 | 3.5 | 0.00 | 0.00 | 0.00 | 82 | 1022.2 |
| 20260508053508 | 47 | 76 | 0.0 | 4.3 | 0.00 | 0.00 | 0.00 | 81 | 1022.2 |
| 20260508053028 | 47 | 79 | 2.6 | 4.3 | 0.00 | 0.00 | 0.00 | 81 | 1022.2 |
| 20260508052515 | 46 | 76 | 0.0 | 1.7 | 0.00 | 0.00 | 0.00 | 82 | 1022.3 |
| 20260508052012 | 45 | 261 | 0.0 | 0.0 | 0.00 | 0.00 | 0.00 | 84 | 1022.2 |
| 20260508051525 | 44 | 261 | 0.0 | 0.0 | 0.00 | 0.00 | 0.00 | 85 | 1022.2 |
| 20260508051008 | 43 | 261 | 0.0 | 0.0 | 0.00 | 0.00 | 0.00 | 86 | 1022.2 |
| 20260508050510 | 43 | 261 | 0.0 | 0.0 | 0.00 | 0.00 | 0.00 | 87 | 1022.1 |
| 20260508050029 | 41 | 261 | 0.0 | 0.0 | 0.00 | 0.00 | 0.00 | 88 | 1022.1 |
| 20260508045510 | 40 | 261 | 0.0 | 0.0 | 0.00 | 0.00 | 0.00 | 88 | 1022.1 |
| 20260508045011 | 39 | 261 | 0.0 | 0.0 | 0.00 | 0.00 | 0.00 | 90 | 1022.0 |
| 20260508044523 | 38 | 261 | 0.0 | 0.0 | 0.00 | 0.00 | 0.00 | 89 | 1022.0 |
| 20260508044011 | 38 | 261 | 0.0 | 0.0 | 0.00 | 0.00 | 0.00 | 88 | 1021.9 |
| 20260508043508 | 37 | 319 | 0.0 | 0.0 | 0.00 | 0.00 | 0.00 | 89 | 1021.9 |
| 20260508043025 | 37 | 319 | 0.0 | 0.0 | 0.00 | 0.00 | 0.00 | 88 | 1021.8 |
| 20260508042509 | 37 | 319 | 0.0 | 0.0 | 0.00 | 0.00 | 0.00 | 88 | 1021.8 |
| 20260508042008 | 37 | 319 | 0.0 | 0.0 | 0.00 | 0.00 | 0.00 | 89 | 1021.7 |
| 20260508041521 | 36 | 319 | 0.0 | 0.0 | 0.00 | 0.00 | 0.00 | 89 | 1021.7 |